Starlink 4012

operational
NORAD ID: 52602 Int'l Des: 2022-052 Owner: SPXS Country: US Constellation: starlink
LEOCIRCULAR

About Starlink 4012

Description loading...

Live Position

Loading 3D Globe...

Upcoming Passes

Altitude History

Altitude vs Time

uPlot chart will show altitude changes over time

Two-Line Element Set

1 52602U 22052E 25296.94365959 -.00000227 00000-0 38288-5 0 9996
2 52602 53.2179 172.9964 0001549 98.1119 262.0049 15.08839408191011
Epoch: Oct 23, 2025 • Age: 7 hours

Current Status

Altitude 555.6 km
Velocity 7.58 km/s
Sub-Earth Point -44.41°S, 85.57°W
Launch Date May 14, 2022
Age 3.4 years
Type internet

Technical Details

Classification Payload
Mass 297.00 kg
Dry Mass 275.00 kg
Total Mass 297.00 kg
Length 0.20 m
Diameter 2.80 m
Span 9.00 m
Shape Box + pan
Manufacturer SPXS
Bus Type Starlink
Phase Status In Orbit
Owner/State SPXS/US

Large Constellations

Loading constellations...